When you browse on this site, cookies collect data to enhance your experience and personalize the content and advertising you see.
Visit our Privacy Policy to learn more. By continuing to use the site, you agree to this use of cookies and data.
  • en France
  • Liste des pays
  • À 7 jours
  • Température de l'eau
  • Carte satellitaire
  • Carte météo
  • Widgets météo
  • user-avatar
    Se connecter

    Météo par heure à Victoria

    Ce jour, 20 Mars, Mercredi

    Heure Température Précipitation Vent Pression Humidité
    00:00 +20°C° 0 mm 3 m/s 748 mmHg 84%
    01:00 +20°C° 0 mm 3 m/s 748 mmHg 88%
    02:00 +19°C° 0 mm 3 m/s 748 mmHg 89%
    03:00 +19°C° 0 mm 3 m/s 748 mmHg 89%
    04:00 +18°C° 0 mm 2 m/s 748 mmHg 91%
    05:00 +18°C° 0 mm 2 m/s 748 mmHg 90%
    06:00 +18°C° 0 mm 2 m/s 748 mmHg 89%
    07:00 +19°C° 0 mm 2 m/s 749 mmHg 88%
    08:00 +21°C° 0 mm 2 m/s 749 mmHg 76%
    09:00 +25°C° 0 mm 2 m/s 749 mmHg 65%
    10:00 +27°C° 0 mm 1 m/s 749 mmHg 54%
    11:00 +29°C° 0 mm 1 m/s 749 mmHg 47%
    12:00 +31°C° 0 mm 1 m/s 748 mmHg 41%
    13:00 +32°C° 0 mm 1 m/s 748 mmHg 34%
    14:00 +33°C° 0 mm 1 m/s 747 mmHg 32%
    15:00 +34°C° 0 mm 2 m/s 747 mmHg 30%
    16:00 +34°C° 0 mm 2 m/s 747 mmHg 28%
    17:00 +31°C° 0 mm 2 m/s 747 mmHg 32%
    18:00 +29°C° 0 mm 3 m/s 747 mmHg 37%
    19:00 +28°C° 0 mm 3 m/s 747 mmHg 42%
    20:00 +27°C° 0 mm 3 m/s 748 mmHg 51%
    21:00 +25°C° 0 mm 4 m/s 748 mmHg 60%
    22:00 +23°C° 0 mm 4 m/s 748 mmHg 69%
    23:00 +22°C° 0 mm 4 m/s 748 mmHg 73%

    Demain, 21 Mars, Jeudi

    Heure Température Précipitation Vent Pression Humidité
    00:00 +22°C° 0 mm 3 m/s 748 mmHg 76%
    01:00 +21°C° 0 mm 3 m/s 748 mmHg 80%
    02:00 +20°C° 0 mm 2 m/s 748 mmHg 82%
    03:00 +20°C° 0 mm 2 m/s 748 mmHg 84%
    04:00 +20°C° 0 mm 2 m/s 748 mmHg 85%
    05:00 +20°C° 0 mm 2 m/s 748 mmHg 85%
    06:00 +20°C° 0 mm 2 m/s 749 mmHg 84%
    07:00 +20°C° 0 mm 2 m/s 749 mmHg 83%
    08:00 +22°C° 0 mm 3 m/s 749 mmHg 73%
    09:00 +25°C° 0 mm 3 m/s 750 mmHg 63%
    10:00 +28°C° 0 mm 3 m/s 750 mmHg 54%
    11:00 +29°C° 0 mm 2 m/s 749 mmHg 47%
    12:00 +31°C° 0 mm 1 m/s 749 mmHg 41%
    13:00 +33°C° 0 mm 1 m/s 749 mmHg 35%
    14:00 +33°C° 0 mm 1 m/s 748 mmHg 33%
    15:00 +33°C° 0 mm 1 m/s 748 mmHg 30%
    16:00 +33°C° 0 mm 1 m/s 747 mmHg 28%
    17:00 +32°C° 0 mm 2 m/s 747 mmHg 34%
    18:00 +30°C° 0 mm 3 m/s 748 mmHg 39%
    19:00 +28°C° 0 mm 4 m/s 748 mmHg 44%
    20:00 +27°C° 0 mm 4 m/s 748 mmHg 51%
    21:00 +26°C° 0 mm 4 m/s 749 mmHg 57%
    22:00 +23°C° 0 mm 4 m/s 749 mmHg 63%
    23:00 +23°C° 0.3 mm 4 m/s 749 mmHg 68%

    Après-demain, 22 Mars, Vendredi

    Heure Température Précipitation Vent Pression Humidité
    00:00 +22°C° 0.3 mm 3 m/s 749 mmHg 72%
    01:00 +21°C° 0.3 mm 3 m/s 749 mmHg 77%
    02:00 +21°C° 0.1 mm 3 m/s 749 mmHg 77%
    03:00 +20°C° 0.1 mm 3 m/s 749 mmHg 78%
    04:00 +20°C° 0.1 mm 3 m/s 748 mmHg 78%
    05:00 +20°C° 0 mm 3 m/s 749 mmHg 78%
    06:00 +20°C° 0 mm 3 m/s 749 mmHg 79%
    07:00 +20°C° 0 mm 3 m/s 749 mmHg 79%
    08:00 +22°C° 0 mm 4 m/s 749 mmHg 72%
    09:00 +25°C° 0 mm 4 m/s 750 mmHg 65%
    10:00 +27°C° 0 mm 5 m/s 750 mmHg 58%
    11:00 +29°C° 0 mm 5 m/s 749 mmHg 52%
    12:00 +30°C° 0 mm 4 m/s 748 mmHg 47%
    13:00 +33°C° 0 mm 4 m/s 748 mmHg 41%
    14:00 +34°C° 0 mm 3 m/s 747 mmHg 38%
    15:00 +34°C° 0 mm 3 m/s 747 mmHg 35%
    16:00 +35°C° 0 mm 2 m/s 746 mmHg 32%
    17:00 +32°C° 0 mm 2 m/s 746 mmHg 36%
    18:00 +30°C° 0 mm 3 m/s 746 mmHg 40%
    19:00 +29°C° 0 mm 3 m/s 746 mmHg 44%
    20:00 +28°C° 0 mm 3 m/s 747 mmHg 46%
    21:00 +27°C° 0 mm 4 m/s 747 mmHg 49%
    22:00 +26°C° 0 mm 4 m/s 747 mmHg 52%
    23:00 +26°C° 0.1 mm 5 m/s 747 mmHg 55%

    23 Mars, Samedi

    Heure Température Précipitation Vent Pression Humidité
    00:00 +24°C° 0.1 mm 6 m/s 746 mmHg 58%
    01:00 +24°C° 0.1 mm 7 m/s 746 mmHg 61%
    02:00 +23°C° 0.1 mm 6 m/s 746 mmHg 61%
    03:00 +23°C° 0.1 mm 5 m/s 746 mmHg 62%
    04:00 +23°C° 0.1 mm 5 m/s 745 mmHg 63%
    05:00 +23°C° 0.1 mm 6 m/s 745 mmHg 64%
    06:00 +22°C° 0.1 mm 7 m/s 745 mmHg 66%
    07:00 +22°C° 0.1 mm 8 m/s 745 mmHg 68%
    08:00 +23°C° 0 mm 8 m/s 745 mmHg 63%
    09:00 +24°C° 0 mm 7 m/s 745 mmHg 59%
    10:00 +26°C° 0 mm 7 m/s 744 mmHg 55%
    11:00 +28°C° 0 mm 7 m/s 744 mmHg 47%
    12:00 +32°C° 0 mm 8 m/s 744 mmHg 39%
    13:00 +34°C° 0 mm 8 m/s 743 mmHg 31%
    14:00 +34°C° 0 mm 6 m/s 743 mmHg 31%
    15:00 +33°C° 0 mm 5 m/s 742 mmHg 31%
    16:00 +33°C° 0 mm 3 m/s 742 mmHg 31%
    17:00 +31°C° 0 mm 3 m/s 742 mmHg 31%
    18:00 +30°C° 0 mm 2 m/s 742 mmHg 32%
    19:00 +30°C° 0 mm 2 m/s 743 mmHg 32%
    20:00 +29°C° 0 mm 2 m/s 743 mmHg 34%
    21:00 +28°C° 0 mm 2 m/s 744 mmHg 35%
    22:00 +27°C° 0 mm 2 m/s 745 mmHg 37%
    23:00 +26°C° 0 mm 2 m/s 745 mmHg 39%

    24 Mars, Dimanche

    Heure Température Précipitation Vent Pression Humidité
    00:00 +25°C° 0 mm 2 m/s 745 mmHg 42%
    01:00 +24°C° 0 mm 3 m/s 745 mmHg 44%
    02:00 +22°C° 0 mm 3 m/s 745 mmHg 52%
    03:00 +21°C° 0 mm 3 m/s 745 mmHg 61%
    04:00 +20°C° 0 mm 2 m/s 745 mmHg 69%
    05:00 +20°C° 0 mm 2 m/s 745 mmHg 72%
    06:00 +19°C° 0 mm 2 m/s 745 mmHg 76%
    07:00 +19°C° 0 mm 2 m/s 746 mmHg 79%
    08:00 +21°C° 0 mm 2 m/s 746 mmHg 69%
    09:00 +24°C° 0 mm 1 m/s 746 mmHg 60%
    10:00 +26°C° 0 mm 1 m/s 746 mmHg 50%
    11:00 +28°C° 0 mm 2 m/s 745 mmHg 45%
    12:00 +29°C° 0 mm 3 m/s 745 mmHg 40%
    13:00 +32°C° 0 mm 5 m/s 744 mmHg 35%
    14:00 +32°C° 0 mm 5 m/s 744 mmHg 34%
    15:00 +32°C° 0 mm 6 m/s 743 mmHg 33%
    16:00 +32°C° 0 mm 6 m/s 743 mmHg 32%
    17:00 +28°C° 0.4 mm 7 m/s 743 mmHg 45%
    18:00 +26°C° 0.4 mm 7 m/s 743 mmHg 57%
    19:00 +22°C° 0.4 mm 8 m/s 743 mmHg 70%
    20:00 +22°C° 0 mm 8 m/s 743 mmHg 70%
    21:00 +22°C° 0 mm 7 m/s 743 mmHg 70%
    22:00 +22°C° 0 mm 7 m/s 744 mmHg 71%
    23:00 +22°C° 0.1 mm 7 m/s 743 mmHg 71%

    25 Mars, Lundi

    Heure Température Précipitation Vent Pression Humidité
    00:00 +22°C° 0.1 mm 6 m/s 743 mmHg 72%
    01:00 +22°C° 0.1 mm 6 m/s 743 mmHg 72%
    02:00 +20°C° 0 mm 5 m/s 743 mmHg 69%
    03:00 +17°C° 0 mm 5 m/s 743 mmHg 67%
    04:00 +17°C° 0 mm 4 m/s 744 mmHg 64%
    05:00 +17°C° 0 mm 4 m/s 745 mmHg 64%
    06:00 +15°C° 0 mm 4 m/s 746 mmHg 64%
    07:00 +15°C° 0 mm 5 m/s 747 mmHg 64%
    08:00 +16°C° 0 mm 5 m/s 747 mmHg 56%
    09:00 +17°C° 0 mm 6 m/s 748 mmHg 47%
    10:00 +17°C° 0 mm 6 m/s 748 mmHg 39%
    11:00 +19°C° 0 mm 6 m/s 748 mmHg 37%
    12:00 +20°C° 0 mm 6 m/s 748 mmHg 34%
    13:00 +21°C° 0 mm 6 m/s 748 mmHg 31%
    14:00 +21°C° 0 mm 6 m/s 747 mmHg 31%
    15:00 +21°C° 0 mm 6 m/s 747 mmHg 31%
    16:00 +20°C° 0 mm 6 m/s 747 mmHg 31%
    17:00 +19°C° 0 mm 5 m/s 747 mmHg 33%
    18:00 +18°C° 0 mm 4 m/s 748 mmHg 36%
    19:00 +16°C° 0 mm 3 m/s 749 mmHg 38%
    20:00 +15°C° 0 mm 4 m/s 749 mmHg 40%
    21:00 +14°C° 0 mm 4 m/s 750 mmHg 41%
    22:00 +13°C° 0 mm 4 m/s 750 mmHg 43%
    23:00 +12°C° 0 mm 4 m/s 751 mmHg 45%
    Voir plus